Presure
286 279 275 269 267 273 271 276 273 276 299 298 293 302 320 285 271 257 252 239 245 249 245 247 247 253 262 302 281 301 275 287 289 272 275 287 316 337 357 258 239 239 228
268 266 270 269 266 268 263 274 293 296 290 299 331 300 272 263 249 246 235 243 238 241 244 240 240 248 260 338 324 306 302 277 285 295 270 276 293 327 324 329 274 240 242
273 269 269 265 265 269 289 293 286 295 298 312 283 265 256 244 238 240 233 237 233 235 229 236 242 236 254 272 316 332 312 305 276 312 297 267 278 301 323 309 310 312 246
270 272 268 283 278 290 288 288 290 317 296 271 256 250 244 233 238 235 234 231 235 226 240 236 244 242 256 259 263 284 340 318 296 295 313 276 265 278 305 313 294 297 305
290 283 281 291 288 284 288 281 310 278 261 254 242 243 232 231 238 229 229 231 226 226 226 249 246 236 234 243 255 256 268 297 332 291 300 304 268 264 276 294 306 288 288
301 287 286 287 284 282 311 291 267 253 252 240 239 237 228 236 228 229 231 227 219 221 229 223 240 248 248 237 241 256 255 262 278 336 303 297 296 266 263 272 286 297 286
278 286 286 281 275 319 282 261 247 248 239 237 235 229 230 229 227 228 226 223 233 228 227 226 228 239 244 253 245 243 251 264 258 272 290 327 295 309 267 258 264 278 290
282 279 275 297 307 276 256 243 237 239 234 233 229 227 225 228 227 228 224 218 228 222 230 226 229 240 238 244 254 250 259 259 254 256 293 284 334 295 301 267 258 258 269
275 271 289 305 269 253 242 232 238 232 229 229 225 224 226 228 229 228 224 220 224 229 229 229 229 222 240 238 244 259 251 259 257 270 263 323 293 300 327 299 270 259 253
288 288 296 268 251 241 230 236 222 228 226 225 223 224 222 229 232 235 233 222 227 226 227 232 232 231 232 237 240 247 251 258 255 261 271 326 310 333 319 335 310 274 262
279 275 271 251 240 232 232 217 229 221 225 221 220 222 217 218 222 229 227 224 219 217 222 233 237 234 232 238 241 251 250 254 265 258 272 323 304 354 342 331 328 308 290
283 278 250 238 232 228 226 226 216 224 219 223 218 219 217 217 216 215 220 225 226 225 228 235 241 239 234 236 243 253 248 256 269 266 310 315 330 362 357 352 330 318 321
286 251 239 234 222 225 222 224 220 220 222 217 217 222 226 225 221 227 218 218 219 221 229 232 239 237 234 242 249 245 254 261 267 295 318 300 361 352 343 343 357 335 315
250 239 234 229 231 224 228 217 215 225 223 223 220 216 217 221 228 228 229 228 227 228 231 241 238 234 240 245 250 249 255 263 288 315 300 354 348 346 354 356 343 339 347
236 232 219 223 217 225 224 224 222 217 216 216 217 216 224 227 230 231 228 228 228 229 236 236 230 235 241 246 246 248 255 276 306 293 350 343 343 354 349 347 350 358 362
228 225 221 221 214 216 220 218 216 210 217 223 216 220 227 230 232 232 230 224 226 231 230 228 232 234 241 246 245 252 275 294 293 345 336 334 345 336 335 335 335 336 349
224 224 225 221 224 217 212 213 215 222 217 216 219 224 227 231 231 241 236 228 236 229 229 230 233 239 243 247 247 275 288 301 341 333 334 340 332 327 331 330 326 319 316
227 215 207 218 224 213 213 217 210 212 215 219 219 221 229 228 234 233 230 235 234 229 231 235 238 242 250 242 267 281 342 338 331 339 337 327 323 319 319 323 323 320 319
229 226 218 214 217 217 215 215 218 220 224 223 219 223 233 229 232 238 227 228 228 232 234 238 244 248 245 267 279 344 334 331 339 329 320 312 311 320 324 323 323 319 316
228 226 224 218 214 215 218 217 220 222 221 220 224 232 229 230 235 227 228 231 234 233 238 245 250 248 272 278 341 327 333 325 316 310 316 326 328 328 325 324 323 322 321
233 233 226 223 224 225 225 226 223 223 226 228 235 228 221 233 215 228 232 228 234 234 242 249 256 275 275 336 324 328 318 309 306 316 321 321 320 319 320 321 322 323 327
247 245 240 232 229 217 218 220 231 230 231 230 227 230 232 229 230 232 231 236 238 242 245 274 272 275 337 324 324 319 316 307 308 329 333 334 334 328 325 330 357 413 407
252 240 238 237 235 234 229 231 232 225 229 230 230 229 230 231 230 227 239 243 242 253 269 271 272 343 325 324 323 317 307 306 324 320 314 316 324 335 387 410 398 398 395
237 237 236 239 237 236 230 229 226 229 231 230 229 230 231 227 230 239 242 242 265 265 268 271 341 331 320 327 321 306 302 314 320 320 325 334 349 412 401 399 401 405 404
241 239 236 237 229 228 236 229 228 233 231 232 232 227 227 232 240 238 243 262 260 270 271 303 338 324 329 325 311 299 306 314 327 338 346 377 409 385 407 405 410 401 402
253 246 242 242 238 227 228 232 233 233 229 230 227 232 233 238 239 246 263 253 275 272 284 342 326 327 324 311 299 303 311 330 352 365 403 406 387 409 410 406 402 388 382
Wind_Speed
69 70 73 77 78 73 74 73 72 70 58 54 51 44 28 25 25 28 32 37 38 37 39 40 42 43 42 43 43 44 43 43 44 42 40 38 38 44 53 112 110 113 107
72 73 69 71 74 72 72 68 56 53 50 43 25 24 24 23 29 29 36 35 37 38 39 40 41 42 41 33 35 40 40 42 43 43 40 40 38 40 50 60 103 113 117
66 67 69 72 71 68 56 50 48 44 37 23 22 24 22 28 30 32 34 35 36 37 39 41 42 42 41 35 31 32 35 36 43 38 43 40 39 38 45 56 62 69 119
63 62 64 57 57 49 46 43 38 26 22 23 25 24 25 29 30 32 33 35 34 38 38 42 42 43 39 38 36 32 32 32 35 36 38 42 41 39 39 49 61 66 69
53 52 51 43 44 41 37 34 22 22 24 24 26 23 27 29 30 34 35 34 36 38 41 36 39 43 43 40 38 38 33 32 33 35 35 41 44 43 42 44 52 61 66
40 42 43 40 36 33 26 22 23 25 25 26 24 26 30 30 33 35 35 36 39 42 43 44 40 39 40 42 41 38 38 34 33 34 37 39 45 48 47 46 47 55 62
43 40 37 33 32 25 23 25 27 25 26 26 25 28 30 32 34 36 37 40 41 44 45 46 45 43 40 41 42 42 39 37 36 34 36 39 44 43 53 52 50 51 59
37 35 33 29 25 24 27 26 26 26 27 26 27 28 30 33 36 38 40 43 44 47 46 48 48 46 45 42 43 42 42 40 40 40 41 40 42 49 51 60 57 55 55
35 33 30 27 26 28 26 26 26 28 26 27 27 30 32 35 37 40 43 46 47 48 46 48 50 48 48 47 47 49 45 45 44 45 45 46 44 45 50 58 68 64 62
31 28 29 29 28 27 26 27 28 27 28 29 30 32 33 36 39 41 43 48 49 50 51 52 52 52 52 53 52 52 52 53 50 51 52 54 50 50 51 54 60 76 72
28 27 30 30 28 27 29 27 28 30 30 32 34 34 36 38 42 45 47 50 52 53 54 55 56 57 57 58 59 60 57 57 61 55 59 59 56 56 57 58 59 66 78
32 31 33 29 29 29 27 29 31 33 33 35 37 38 40 42 44 46 49 50 52 54 56 58 59 60 61 63 66 66 62 66 70 64 70 63 58 56 56 59 62 64 68
31 33 31 28 26 29 29 31 33 35 36 39 42 44 45 47 49 53 53 54 56 57 59 62 62 63 65 69 71 68 72 74 74 82 72 66 54 53 53 55 58 64 68
32 31 28 28 29 28 32 33 34 37 38 41 43 44 46 50 53 54 54 56 58 60 62 64 64 66 70 73 74 73 77 80 86 79 74 57 55 54 54 55 57 60 63
30 28 27 27 28 31 33 35 36 37 40 43 46 49 53 53 54 56 57 58 60 62 65 66 66 71 75 77 77 78 84 89 84 80 59 57 56 52 51 50 51 52 56
30 29 29 30 31 31 34 36 39 38 45 47 49 52 53 55 56 57 59 60 63 67 66 66 71 74 79 81 80 86 92 89 86 61 59 57 53 52 51 50 49 49 49
32 31 33 34 36 36 36 40 44 46 47 49 52 54 57 57 58 62 63 64 68 66 70 73 75 80 84 85 85 95 91 83 65 62 59 54 52 50 49 50 51 53 55
38 35 33 37 39 39 42 45 43 46 50 53 55 57 60 61 64 64 65 68 69 70 74 77 82 87 91 85 96 95 72 67 65 60 55 53 52 52 52 52 54 56 57
42 42 41 41 43 45 46 46 50 53 55 56 56 60 64 64 65 67 65 68 71 76 80 84 90 92 90 96 96 71 69 66 60 57 56 56 57 57 56 57 58 60 61
45 46 47 46 45 46 49 51 54 56 56 57 61 65 64 66 68 65 69 75 77 80 85 89 93 93 96 95 71 71 66 62 63 63 63 61 59 59 60 61 62 64 66
48 51 50 51 52 53 53 54 55 56 59 62 64 65 62 69 59 70 76 75 81 84 90 93 96 96 96 74 73 66 66 66 66 66 64 63 64 64 65 66 67 69 71
46 50 54 54 54 48 52 55 58 59 61 63 63 67 67 69 72 75 78 83 86 90 93 94 94 95 74 74 69 67 67 68 70 69 67 67 67 68 69 71 70 63 61
43 46 47 50 52 53 55 56 58 57 62 64 65 68 70 72 74 75 85 88 89 94 93 94 95 75 75 72 68 67 69 71 71 70 69 70 71 73 70 63 62 60 60
41 43 46 49 51 52 53 55 58 61 63 65 66 69 73 71 77 83 87 89 92 91 94 95 78 74 74 69 68 70 72 74 73 73 74 74 75 66 63 62 60 58 55
44 46 47 49 49 52 56 57 59 63 65 68 69 68 71 78 83 84 90 91 91 93 94 92 74 75 71 68 69 73 75 77 77 76 76 75 66 66 61 59 55 53 51
40 44 47 49 50 52 56 60 62 65 66 68 69 76 78 82 84 90 91 90 94 94 97 74 74 72 69 70 73 76 78 80 79 78 71 66 65 59 56 53 52 51 52
Wind_Direction
281 280 279 280 280 280 281 282 284 285 286 286 287 285 274 271 278 281 283 284 288 291 293 296 297 297 296 292 289 282 276 275 272 267 268 271 269 251 240 230 233 233 235
277 278 280 280 281 282 284 285 285 283 285 283 266 264 264 272 277 279 283 286 289 293 295 297 299 300 302 308 296 288 283 274 274 270 266 266 270 258 242 232 232 234 232
277 277 277 279 281 282 282 281 282 281 278 258 252 260 265 274 277 281 284 287 290 294 297 300 301 302 306 312 321 304 289 283 274 277 265 263 265 266 250 239 235 234 233
279 280 278 280 279 277 278 278 276 257 247 244 256 261 269 275 279 281 282 286 292 294 301 302 303 303 310 310 313 322 313 293 279 276 271 261 260 262 259 246 238 237 237
281 279 278 273 274 275 274 272 237 235 241 249 261 264 272 278 279 280 283 287 290 294 296 306 302 300 301 306 310 310 312 319 297 278 273 266 260 259 257 256 245 240 239
275 273 272 272 271 268 252 231 230 242 246 260 263 268 274 274 277 281 285 285 290 292 293 294 300 305 305 300 304 309 305 307 310 299 280 269 262 257 257 254 252 244 240
275 274 271 268 264 238 225 228 246 245 256 261 267 272 274 277 280 284 286 289 287 289 291 292 295 299 304 310 303 303 304 307 299 301 294 281 265 262 253 252 250 248 243
271 267 265 254 230 216 224 244 253 253 260 264 271 275 280 280 283 286 288 290 289 291 291 293 296 301 301 304 309 303 309 304 297 291 306 287 283 263 257 251 250 248 246
262 262 253 222 209 221 236 252 249 258 264 271 275 280 282 283 284 285 284 288 291 292 292 295 296 296 302 301 305 311 302 306 299 305 291 302 284 274 266 252 248 247 246
254 240 227 207 216 229 248 245 261 263 270 275 280 282 285 288 287 286 285 289 291 295 296 297 296 298 300 303 304 306 306 308 301 302 303 305 294 282 269 262 252 245 246
235 231 207 214 225 240 245 261 259 270 273 278 281 286 288 292 293 290 289 290 292 294 296 298 300 300 302 304 305 307 306 307 309 301 305 306 298 279 271 263 256 247 243
220 208 208 224 234 246 253 259 270 273 279 280 283 286 287 289 291 293 293 293 294 296 299 302 302 302 303 304 307 308 307 309 311 305 312 307 296 283 276 269 258 251 248
206 201 218 230 244 249 260 263 273 279 281 284 286 289 290 292 292 292 291 293 294 296 299 301 303 303 305 306 307 307 310 311 311 314 311 306 291 285 277 272 268 257 249
200 218 226 236 243 256 261 269 277 277 281 284 287 291 295 295 293 293 293 293 295 298 301 303 304 306 306 308 309 310 311 311 313 312 310 299 295 289 283 277 268 263 260
221 225 243 247 256 261 263 268 274 279 284 288 291 294 295 294 294 294 294 296 298 301 303 305 307 308 309 310 311 311 312 312 312 311 303 300 296 291 286 281 276 272 267
233 239 249 253 261 266 269 274 278 288 288 287 291 294 295 296 298 296 295 297 301 302 305 307 309 309 310 310 311 311 311 312 311 306 304 300 295 290 286 282 277 274 272
241 244 248 256 258 265 273 277 281 283 287 289 292 295 297 299 298 300 298 300 301 304 306 308 308 309 310 310 312 311 312 311 308 306 303 298 295 291 286 281 277 272 269
240 252 264 261 262 268 273 275 283 286 288 290 292 294 299 298 299 299 300 303 304 306 308 308 309 310 310 311 310 311 310 309 307 304 301 298 295 291 287 283 278 275 273
244 248 256 262 263 267 274 280 284 286 288 290 293 295 297 298 299 301 304 305 306 307 308 309 310 309 311 310 311 311 310 309 307 304 301 298 296 293 289 285 281 276 273
248 251 255 262 268 274 277 280 282 284 288 291 292 294 295 298 302 304 305 306 307 308 308 308 308 309 310 311 311 310 309 308 307 305 303 300 297 294 290 286 283 279 277
250 252 256 261 265 270 275 278 281 285 287 290 292 294 300 301 303 305 305 307 308 309 309 309 309 310 311 311 311 309 308 307 307 306 303 300 297 294 292 289 287 284 282
253 254 257 262 266 274 277 279 281 285 288 290 294 297 300 301 303 304 306 306 307 308 309 309 310 312 311 310 309 308 307 307 308 307 305 302 300 298 296 294 294 294 291
257 257 261 264 267 270 274 279 283 288 289 292 296 297 299 301 304 306 306 307 308 307 309 311 312 311 310 310 308 308 308 309 310 308 306 304 303 302 303 301 299 296 293
259 261 264 266 269 273 280 282 286 288 292 294 295 298 300 303 305 306 306 308 308 310 311 312 312 310 310 309 308 308 309 310 310 308 307 306 307 306 304 303 300 298 296
260 263 268 272 277 280 280 284 288 291 292 293 296 299 302 304 305 307 307 307 309 311 312 314 310 310 309 308 308 309 310 310 311 310 309 309 308 307 305 304 302 300 298
267 268 271 274 278 282 285 287 288 289 293 296 299 300 303 304 306 307 307 308 311 311 314 310 310 310 309 309 309 309 311 313 313 311 310 310 309 307 306 305 303 301 300